Location: ??
(34.9170°N, 135.5016°E)
Time: 00:27:17
(UTC+00:00)

RS-15 - Pass Details

Date: 25 April 2021
Orbit: 1888 x 2157 km, 64.8° (Epoch: 12 May)

Event Time Altitude Azimuth Distance (km) Brightness Sun altitude
Rises 16:30:46 0° 332° (NNW) 5,531 10.8 -36.7°
Reaches altitude 10° 16:34:29 10° 339° (NNW) 4,562 10.3 -36.3°
Maximum altitude 16:45:43 43° 49° (NE) 2,780 9.1 -35.1°
Drops below altitude 10° 16:57:09 10° 118° (ESE) 4,667 10.1 -33.8°
Sets 17:00:56 0° 125° (SE) 5,667 10.5 -33.3°
